Today is:



Torrelavega more information Torrelavega


Meteosat more information blitzortung!


Radar lluvias more information rain snow radar


Visita nuestra red de sitios de meteo:

Documentation for the template used

Website of another weatherstation

MeteoibericaRed estaciones Meteorologicas

PaypalWebsite Paypal



Sin Advertencias climatologicas en Cantabria.En este momento tenemos Nivel Verde.    No hay Alarmas

Select another period ( hide this area )

Unidades Período Custom range Directly to
Métrico impérial Tanto
Diario Semana Mensual Anual
use both date-selectors for a custom range
previous Dia
With this date

WeatherUnderground graphs for this period ( click here )


Diario Resumen Sabado 19 Octubre 2019
Tiempo Temp. ( °C ) Dew pt. ( °C ) Viento ( km/h ) desde Ráfagas ( km/h ) Pression baro ( hPa ) Humid.( % ) Rainrate ( cm )
Alto15,7 15,2 9,7 S ( 16/31 ) 11,3 1002,9 97 1,00
Media14,4 13,9 0,2 calma #146/155 0,9 1001,4 97 2,00
Baja13,7 13,2 -   0,0 999,9 95 -
Diario Tabular details for Sabado 19 Octubre 2019
Tiempo Temp. ( °C ) Dew pt. ( °C ) Viento ( km/h ) desde Ráfagas ( km/h ) Pression baro ( hPa ) Humid.( % ) Rainrate ( cm )
00:00 15,1 14,3 3,2 S 9,7 1002,9 95 -
00:05 14,9 14,3 9,7 S 11,3 1002,9 96 -
00:10 14,8 14,1 1,6 S 9,7 1002,9 96 -
00:15 14,7 14,1   calma   1002,9 96 -
00:20 14,7 14,1   calma 4,8 1002,9 96 -
00:25 14,7 14,1   calma   1002,9 96 -
00:30 14,7 14,1   calma   1002,9 96 -
00:35 14,7 14,1   calma   1002,9 96 -
00:40 14,7 14,1   calma   1002,9 96 -
00:45 14,7 14,1   calma   1002,9 96 -
00:50 14,7 14,1   calma   1002,9 96 -
00:55 14,7 14,1   calma   1002,9 96 -
01:00 14,6 14,1   calma   1002,9 97 -
01:05 14,6 14,1   calma   1002,9 97 -
01:10 14,7 14,2   calma   1002,9 97 -
01:15 14,7 14,1   calma   1002,9 96 -
01:20 14,6 13,9   calma   1002,9 96 -
01:25 14,5 13,9   calma 3,2 1002,9 96 -
01:30 14,4 13,8   calma 4,8 1002,9 96 -
01:35 14,2 13,7   calma 3,2 1002,9 97 -
01:40 14,1 13,7 3,2 NNW 8,0 1002,9 97 -
01:45 14,1 13,6   calma 3,2 1002,9 97 -
01:50 14,0 13,6   calma   1002,9 97 -
01:55 14,0 13,6   calma   1002,9 97 -
02:00 14,1 13,6   calma 1,6 1002,9 97 -
02:05 14,2 13,7   calma   1002,9 97 -
02:10 14,2 13,7   calma   1002,9 97 -
02:15 14,1 13,6   calma   1002,9 97 -
02:20 14,2 13,7   calma   1002,9 97 -
02:25 14,2 13,7   calma   1002,9 97 -
02:30 14,2 13,7   calma   1002,9 97 -
02:35 14,1 13,6   calma   1002,9 97 -
02:40 14,1 13,6   calma   1002,9 97 -
02:45 14,1 13,6   calma   1001,9 97 -
02:50 14,1 13,6   calma   1001,9 97 -
02:55 14,1 13,6   calma   1001,9 97 -
03:00 14,1 13,6   calma   1001,9 97 -
03:05 14,2 13,7   calma   1001,9 97 -
03:10 14,2 13,7   calma   1001,9 97 -
03:15 14,2 13,7   calma   1001,9 97 -
03:20 14,1 13,6   calma   1001,9 97 -
03:25 14,0 13,6   calma 1,6 1001,9 97 -
03:30 13,9 13,4   calma   1001,9 97 -
03:35 13,9 13,4   calma 1,6 1001,9 97 -
03:40 13,9 13,4   calma   1001,9 97 -
03:45 13,8 13,3   calma 3,2 1001,9 97 -
03:50 13,8 13,3   calma   1001,9 97 -
03:55 13,8 13,3   calma 6,4 1001,9 97 -
04:00 13,7 13,2   calma   1000,9 97 -
04:05 13,8 13,3   calma 3,2 1000,9 97 -
04:10 13,8 13,3   calma   1000,9 97 -
04:15 13,8 13,3   calma 1,6 1000,9 97 -
04:20 13,8 13,3   calma   1000,9 97 -
04:25 13,8 13,3   calma 3,2 1000,9 97 -
04:30 13,8 13,3   calma   1000,9 97 -
04:35 13,8 13,3   calma   1000,9 97 -
04:40 13,8 13,3   calma   1000,9 97 -
04:45 13,8 13,3   calma   1000,9 97 -
04:50 13,8 13,3   calma   1000,9 97 -
04:55 13,9 13,4   calma   1000,9 97 -
05:00 13,9 13,4   calma   999,9 97 -
05:05 13,9 13,4   calma   999,9 97 -
05:10 13,9 13,4   calma   999,9 97 -
05:15 13,9 13,4   calma   1000,9 97 -
05:20 14,0 13,6   calma   1000,9 97 -
05:25 14,0 13,6   calma   1000,9 97 -
05:30 14,0 13,6   calma   1001,9 97 -
05:35 13,9 13,4   calma   1001,9 97 -
05:40 13,8 13,3   calma   1001,9 97 -
05:45 13,8 13,3   calma 9,7 1000,9 97 -
05:50 13,8 13,3   calma   1000,9 97 -
05:55 13,8 13,3   calma 9,7 1000,9 97 -
06:00 13,8 13,3 1,6 N 9,7 1000,9 97 -
06:05 13,9 13,4 3,2 N 9,7 1000,9 97 -
06:10 14,0 13,6 3,2 N 6,4 1000,9 97 -
06:15 14,0 13,6 3,2 N 8,0 1001,9 97 -
06:20 14,1 13,6   calma 6,4 1001,9 97 -
06:25 14,2 13,7   calma   1001,9 97 -
06:30 14,2 13,7   calma   1000,9 97 -
06:35 14,3 13,8   calma   1000,9 97 -
06:40 14,4 13,9   calma   1000,9 97 -
06:45 14,5 14,1   calma   999,9 97 -
06:50 14,5 14,1   calma   999,9 97 -
06:55 14,6 14,1   calma   999,9 97 -
07:00 14,7 14,2   calma   1000,9 97 -
07:05 14,7 14,2   calma   1000,9 97 -
07:10 14,6 14,2   calma   1000,9 97 -
07:15 14,6 14,1   calma   999,9 97 -
07:20 14,6 14,1   calma   999,9 97 -
07:25 14,6 14,1   calma   999,9 97 -
07:30 14,6 14,1   calma   1000,9 97 -
07:35 14,5 14,1   calma   1000,9 97 -
07:40 14,4 13,9   calma   1000,9 97 -
07:45 14,4 13,9   calma   1000,9 97 -
07:50 14,4 13,9   calma   1000,9 97 -
07:55 14,4 13,9   calma   1000,9 97 -
08:00 14,4 13,9   calma   1000,9 97 -
08:05 14,4 13,9   calma   1000,9 97 -
08:10 14,3 13,8   calma   1000,9 97 -
08:15 14,2 13,7   calma   1000,9 97 -
08:20 14,3 13,8   calma   1000,9 97 -
08:25 14,3 13,8   calma   1000,9 97 -
08:30 14,2 13,7   calma   1000,9 97 -
08:35 14,2 13,7   calma   1000,9 97 -
08:40 14,2 13,7   calma   1000,9 97 -
08:45 14,1 13,6   calma   1001,9 97 -
08:50 14,1 13,6   calma   1001,9 97 -
08:55 14,0 13,6   calma   1001,9 97 -
09:00 14,0 13,6   calma   1000,9 97 -
09:05 13,9 13,4   calma   1000,9 97 -
09:10 13,9 13,4   calma   1000,9 97 -
09:15 13,9 13,4   calma   1000,9 97 -
09:20 13,9 13,4   calma 1,6 1000,9 97 -
09:25 13,9 13,4   calma   1000,9 97 -
09:30 13,9 13,4   calma   1000,9 97 -
09:35 14,0 13,6   calma   1000,9 97 -
09:40 14,1 13,6   calma   1000,9 97 -
09:45 14,2 13,8   calma   1000,9 97 -
09:50 14,4 13,9   calma   1000,9 97 -
09:55 14,4 13,9   calma   1000,9 97 -
10:00 14,4 13,9   calma   1000,9 97 -
10:05 14,4 13,9   calma 1,6 1000,9 97 -
10:10 14,3 13,8   calma   1000,9 97 -
10:15 14,4 13,9   calma   1000,9 97 -
10:20 14,5 14,1   calma   1000,9 97 -
10:25 14,6 14,1   calma   1000,9 97 -
10:30 14,7 14,2   calma   1000,9 97 -
10:35 14,7 14,2   calma   1000,9 97 -
10:40 14,8 14,3   calma   1000,9 97 -
10:45 14,9 14,4   calma   1000,9 97 -
10:50 14,9 14,4   calma   1000,9 97 -
10:55 14,9 14,4 1,9 S   1000,9 97 -
11:00 14,9 14,4   calma   1000,9 97 -
11:05 14,9 14,4   calma   1000,9 97 -
11:10 14,9 14,4   calma 1,6 1000,9 97 -
11:15 14,9 14,4   calma   1000,9 97 -
11:20 14,9 14,4   calma   1000,9 97 -
11:25 15,0 14,6   calma   1000,9 97 1,00
11:30 15,0 14,6   calma   1000,9 97 1,00
11:35 15,0 14,6   calma   1000,9 97 -
11:40 15,0 14,6   calma   1000,9 97 -
11:45 15,0 14,6   calma   1000,9 97 -
11:50 15,1 14,6   calma   1000,9 97 -
11:55 15,2 14,7   calma   1000,9 97 -
12:00 15,2 14,7   calma   1000,9 97 -
12:05 15,2 14,7   calma   1000,9 97 -
12:10 15,2 14,7   calma   1000,9 97 -
12:15 15,2 14,7   calma   1000,9 97 -
12:20 15,3 14,8   calma   1000,9 97 -
12:25 15,4 14,9   calma   1000,9 97 -
12:30 15,4 14,9   calma   1000,9 97 -
12:35 15,6 15,1   calma   1000,9 97 -
12:40 15,6 15,1   calma   1000,9 97 -
12:45 15,7 15,2   calma   999,9 97 -
12:50 15,6 15,1   calma   999,9 97 -
Diario Resumen Sabado 19 Octubre 2019
Tiempo Temp. ( °C ) Dew pt. ( °C ) Viento ( km/h ) desde Ráfagas ( km/h ) Pression baro ( hPa ) Humid.( % ) Rainrate ( cm )
Alto15,7 15,2 9,7 S ( 16/31 ) 11,3 1002,9 97 1,00
Media14,4 13,9 0,2 calma #146/155 0,9 1001,4 97 2,00
Baja13,7 13,2 -   0,0 999,9 95 -
Diario Tabular details for Sabado 19 Octubre 2019
Tiempo Temp. ( °C ) Dew pt. ( °C ) Viento ( km/h ) desde Ráfagas ( km/h ) Pression baro ( hPa ) Humid.( % ) Rainrate ( cm )
00:00 15,1 14,3 3,2 S 9,7 1002,9 95 -
00:05 14,9 14,3 9,7 S 11,3 1002,9 96 -
00:10 14,8 14,1 1,6 S 9,7 1002,9 96 -
00:15 14,7 14,1   calma   1002,9 96 -
00:20 14,7 14,1   calma 4,8 1002,9 96 -
00:25 14,7 14,1   calma   1002,9 96 -
00:30 14,7 14,1   calma   1002,9 96 -
00:35 14,7 14,1   calma   1002,9 96 -
00:40 14,7 14,1   calma   1002,9 96 -
00:45 14,7 14,1   calma   1002,9 96 -
00:50 14,7 14,1   calma   1002,9 96 -
00:55 14,7 14,1   calma   1002,9 96 -
01:00 14,6 14,1   calma   1002,9 97 -
01:05 14,6 14,1   calma   1002,9 97 -
01:10 14,7 14,2   calma   1002,9 97 -
01:15 14,7 14,1   calma   1002,9 96 -
01:20 14,6 13,9   calma   1002,9 96 -
01:25 14,5 13,9   calma 3,2 1002,9 96 -
01:30 14,4 13,8   calma 4,8 1002,9 96 -
01:35 14,2 13,7   calma 3,2 1002,9 97 -
01:40 14,1 13,7 3,2 NNW 8,0 1002,9 97 -
01:45 14,1 13,6   calma 3,2 1002,9 97 -
01:50 14,0 13,6   calma   1002,9 97 -
01:55 14,0 13,6   calma   1002,9 97 -
02:00 14,1 13,6   calma 1,6 1002,9 97 -
02:05 14,2 13,7   calma   1002,9 97 -
02:10 14,2 13,7   calma   1002,9 97 -
02:15 14,1 13,6   calma   1002,9 97 -
02:20 14,2 13,7   calma   1002,9 97 -
02:25 14,2 13,7   calma   1002,9 97 -
02:30 14,2 13,7   calma   1002,9 97 -
02:35 14,1 13,6   calma   1002,9 97 -
02:40 14,1 13,6   calma   1002,9 97 -
02:45 14,1 13,6   calma   1001,9 97 -
02:50 14,1 13,6   calma   1001,9 97 -
02:55 14,1 13,6   calma   1001,9 97 -
03:00 14,1 13,6   calma   1001,9 97 -
03:05 14,2 13,7   calma   1001,9 97 -
03:10 14,2 13,7   calma   1001,9 97 -
03:15 14,2 13,7   calma   1001,9 97 -
03:20 14,1 13,6   calma   1001,9 97 -
03:25 14,0 13,6   calma 1,6 1001,9 97 -
03:30 13,9 13,4   calma   1001,9 97 -
03:35 13,9 13,4   calma 1,6 1001,9 97 -
03:40 13,9 13,4   calma   1001,9 97 -
03:45 13,8 13,3   calma 3,2 1001,9 97 -
03:50 13,8 13,3   calma   1001,9 97 -
03:55 13,8 13,3   calma 6,4 1001,9 97 -
04:00 13,7 13,2   calma   1000,9 97 -
04:05 13,8 13,3   calma 3,2 1000,9 97 -
04:10 13,8 13,3   calma   1000,9 97 -
04:15 13,8 13,3   calma 1,6 1000,9 97 -
04:20 13,8 13,3   calma   1000,9 97 -
04:25 13,8 13,3   calma 3,2 1000,9 97 -
04:30 13,8 13,3   calma   1000,9 97 -
04:35 13,8 13,3   calma   1000,9 97 -
04:40 13,8 13,3   calma   1000,9 97 -
04:45 13,8 13,3   calma   1000,9 97 -
04:50 13,8 13,3   calma   1000,9 97 -
04:55 13,9 13,4   calma   1000,9 97 -
05:00 13,9 13,4   calma   999,9 97 -
05:05 13,9 13,4   calma   999,9 97 -
05:10 13,9 13,4   calma   999,9 97 -
05:15 13,9 13,4   calma   1000,9 97 -
05:20 14,0 13,6   calma   1000,9 97 -
05:25 14,0 13,6   calma   1000,9 97 -
05:30 14,0 13,6   calma   1001,9 97 -
05:35 13,9 13,4   calma   1001,9 97 -
05:40 13,8 13,3   calma   1001,9 97 -
05:45 13,8 13,3   calma 9,7 1000,9 97 -
05:50 13,8 13,3   calma   1000,9 97 -
05:55 13,8 13,3   calma 9,7 1000,9 97 -
06:00 13,8 13,3 1,6 N 9,7 1000,9 97 -
06:05 13,9 13,4 3,2 N 9,7 1000,9 97 -
06:10 14,0 13,6 3,2 N 6,4 1000,9 97 -
06:15 14,0 13,6 3,2 N 8,0 1001,9 97 -
06:20 14,1 13,6   calma 6,4 1001,9 97 -
06:25 14,2 13,7   calma   1001,9 97 -
06:30 14,2 13,7   calma   1000,9 97 -
06:35 14,3 13,8   calma   1000,9 97 -
06:40 14,4 13,9   calma   1000,9 97 -
06:45 14,5 14,1   calma   999,9 97 -
06:50 14,5 14,1   calma   999,9 97 -
06:55 14,6 14,1   calma   999,9 97 -
07:00 14,7 14,2   calma   1000,9 97 -
07:05 14,7 14,2   calma   1000,9 97 -
07:10 14,6 14,2   calma   1000,9 97 -
07:15 14,6 14,1   calma   999,9 97 -
07:20 14,6 14,1   calma   999,9 97 -
07:25 14,6 14,1   calma   999,9 97 -
07:30 14,6 14,1   calma   1000,9 97 -
07:35 14,5 14,1   calma   1000,9 97 -
07:40 14,4 13,9   calma   1000,9 97 -
07:45 14,4 13,9   calma   1000,9 97 -
07:50 14,4 13,9   calma   1000,9 97 -
07:55 14,4 13,9   calma   1000,9 97 -
08:00 14,4 13,9   calma   1000,9 97 -
08:05 14,4 13,9   calma   1000,9 97 -
08:10 14,3 13,8   calma   1000,9 97 -
08:15 14,2 13,7   calma   1000,9 97 -
08:20 14,3 13,8   calma   1000,9 97 -
08:25 14,3 13,8   calma   1000,9 97 -
08:30 14,2 13,7   calma   1000,9 97 -
08:35 14,2 13,7   calma   1000,9 97 -
08:40 14,2 13,7   calma   1000,9 97 -
08:45 14,1 13,6   calma   1001,9 97 -
08:50 14,1 13,6   calma   1001,9 97 -
08:55 14,0 13,6   calma   1001,9 97 -
09:00 14,0 13,6   calma   1000,9 97 -
09:05 13,9 13,4   calma   1000,9 97 -
09:10 13,9 13,4   calma   1000,9 97 -
09:15 13,9 13,4   calma   1000,9 97 -
09:20 13,9 13,4   calma 1,6 1000,9 97 -
09:25 13,9 13,4   calma   1000,9 97 -
09:30 13,9 13,4   calma   1000,9 97 -
09:35 14,0 13,6   calma   1000,9 97 -
09:40 14,1 13,6   calma   1000,9 97 -
09:45 14,2 13,8   calma   1000,9 97 -
09:50 14,4 13,9   calma   1000,9 97 -
09:55 14,4 13,9   calma   1000,9 97 -
10:00 14,4 13,9   calma   1000,9 97 -
10:05 14,4 13,9   calma 1,6 1000,9 97 -
10:10 14,3 13,8   calma   1000,9 97 -
10:15 14,4 13,9   calma   1000,9 97 -
10:20 14,5 14,1   calma   1000,9 97 -
10:25 14,6 14,1   calma   1000,9 97 -
10:30 14,7 14,2   calma   1000,9 97 -
10:35 14,7 14,2   calma   1000,9 97 -
10:40 14,8 14,3   calma   1000,9 97 -
10:45 14,9 14,4   calma   1000,9 97 -
10:50 14,9 14,4   calma   1000,9 97 -
10:55 14,9 14,4 1,9 S   1000,9 97 -
11:00 14,9 14,4   calma   1000,9 97 -
11:05 14,9 14,4   calma   1000,9 97 -
11:10 14,9 14,4   calma 1,6 1000,9 97 -
11:15 14,9 14,4   calma   1000,9 97 -
11:20 14,9 14,4   calma   1000,9 97 -
11:25 15,0 14,6   calma   1000,9 97 1,00
11:30 15,0 14,6   calma   1000,9 97 1,00
11:35 15,0 14,6   calma   1000,9 97 -
11:40 15,0 14,6   calma   1000,9 97 -
11:45 15,0 14,6   calma   1000,9 97 -
11:50 15,1 14,6   calma   1000,9 97 -
11:55 15,2 14,7   calma   1000,9 97 -
12:00 15,2 14,7   calma   1000,9 97 -
12:05 15,2 14,7   calma   1000,9 97 -
12:10 15,2 14,7   calma   1000,9 97 -
12:15 15,2 14,7   calma   1000,9 97 -
12:20 15,3 14,8   calma   1000,9 97 -
12:25 15,4 14,9   calma   1000,9 97 -
12:30 15,4 14,9   calma   1000,9 97 -
12:35 15,6 15,1   calma   1000,9 97 -
12:40 15,6 15,1   calma   1000,9 97 -
12:45 15,7 15,2   calma   999,9 97 -
12:50 15,6 15,1   calma   999,9 97 -

Download your copy of this data-set  here

Our weather-data as stored at Weather Underground. Guión original por Jim McMurry. Adaptado para la plantilla por Leuven-Template.eu

Usted encontrará nuestra información del tiempo también en:

UK Metoffice

WeatherCloud

Weather Underground

AWEKAS

Citizen Weather Observer Program (CWOP)

HAMweather, WeatherForYou, PWS Weather

Tiempo Vistazo

Equipo utilizado:

Weather-program
Weather Display

Weather-server
My Computer

Proveedor
My provider

Weather Display

My Computer

My provider